Location: Buckland
(65.9785°N, 161.1281°W)
Time: 06:20:49
(UTC+00:00)

Transit 2A Rocket - Pass Details

Date: 28 November 2020
Orbit: 592 x 910 km, 66.7° (Epoch: 21 January)

Event Time Altitude Azimuth Distance (km) Brightness Sun altitude
Exits shadow 16:00:27 53° 249° (WSW) 980 5.1 -22.8°
Maximum altitude 16:01:49 87° 164° (SSE) 793 5.0 -22.6°
Drops below altitude 10° 16:06:59 10° 75° (ENE) 2,240 8.4 -22.1°
Sets 16:09:14 0° 75° (ENE) 3,113 9.4 -21.9°
